Location: Jackson
(42.2460°N, 84.4010°W)
Time: 23:16:31
(UTC-04:00)

Vanguard 2 - Pass Details

Date: 17 February 2026
Orbit: 553 x 2896 km, 32.9° (Epoch: 16 March)

Event Time Altitude Azimuth Distance (km) Brightness Sun altitude
Exits shadow 05:19:37 - 191° (S) 2,759 10.2 -24.9°
Reaches altitude 10° 05:20:22 10° 185° (S) 2,585 10.1 -24.8°
Maximum altitude 05:22:32 12° 163° (SSE) 2,243 10.0 -24.4°
Drops below altitude 10° 05:24:28 10° 140° (SE) 2,224 10.3 -24.0°
Sets 05:28:03 0° 108° (ESE) 2,891 11.6 -23.4°
